Location: ??? ????
(38.0580°N, 23.1536°E)
Time: 23:04:26
(UTC+00:00)

IRS-1C - Pass Details

Date: 13 December 2025
Orbit: 813 x 814 km, 99.0° (Epoch: 14 January)

Event Time Altitude Azimuth Distance (km) Brightness Sun altitude
Rises 16:02:43 0° 161° (SSE) 3,323 7.3 -10.5°
Reaches altitude 10° 16:05:03 10° 160° (SSE) 2,395 6.6 -11.0°
Maximum altitude 16:10:21 80° 75° (ENE) 831 4.1 -11.9°
Drops below altitude 10° 16:15:41 10° 349° (N) 2,410 6.5 -12.9°
Sets 16:18:02 0° 348° (NNW) 3,345 7.2 -13.4°
